Location: �terpigny
(49.8910°N, 2.9249°E)
Time: 11:00:19
(UTC+00:00)

CZ-4 R/B - Pass Details

Date: 24 October 2021
Orbit: 531 x 595 km, 97.8° (Epoch: 30 November)

Event Time Altitude Azimuth Distance (km) Brightness Sun altitude
Rises 19:37:19 0° 206° (SSW) 2,746 5.0 -29.1°
Reaches altitude 10° 19:40:00 10° 226° (SW) 1,869 4.3 -29.5°
Maximum altitude 19:42:48 18° 270° (W) 1,444 4.1 -29.9°
Drops below altitude 10° 19:45:39 10° 313° (NW) 1,906 4.8 -30.4°
Sets 19:48:26 0° 333° (NNW) 2,823 5.6 -30.8°
